[[{"header":{"parameterUnit":"m.s-1","parameterCategory":1,"la1":30.2991,"la2":30.254,"lo1":-89.0895,"lo2":-89.0444,"dy":0.0017,"dx":0.0017,"nx":28,"ny":28,"refTime":"2024-03-01T03:00:00:Z","depth":0,"parameterNumber":2,"parameterNumberName":"U-component_of_WINDS"},"data":[0,0,0,0,0,0,0,0,0,0,0,0,0,0,0,0,0,0,0,0,0,0,0,0,0,0,0,0,0,0,0,0,0,0,0,0,0,0,0,0,0,0,0,0,0,0,0,0,0,0,0,0,0,0,0,0,0,0,-1.4504,-1.4504,0,-1.4512,-1.4512,-1.4512,-1.4508,-1.4508,-1.4508,-1.4508,-1.4516,-1.4516,-1.4517,0,0,0,0,0,0,0,0,0,0,0,0,0,-1.4488,-1.4488,-1.4504,-1.4504,-1.4505,-1.4512,-1.4512,-1.4512,-1.4508,-1.4508,-1.4508,-1.4507,-1.4516,-1.4516,-1.4517,0,0,0,0,0,0,0,0,0,0,0,0,0,-1.4495,-1.4489,-1.4504,-1.4503,-1.4503,-1.4512,-1.4512,-1.4512,-1.4508,-1.4508,-1.4508,-1.4507,-1.4516,-1.4516,-1.4517,-1.4527,0,0,-1.4519,-1.4519,0,0,0,0,0,0,0,0,-1.4495,-1.4496,-1.4503,-1.4504,-1.4504,-1.4509,-1.4509,-1.4517,-1.4508,-1.4506,-1.4508,-1.4507,-1.4514,-1.4515,-1.4517,-1.4527,-1.4528,-1.4519,-1.4519,-1.452,-1.452,0,0,0,0,0,0,0,-1.4494,-1.4496,-1.4507,-1.4504,-1.4504,-1.4503,-1.4504,-1.4511,-1.4512,-1.4507,-1.4506,-1.4507,-1.4514,-1.4516,-1.4517,-1.4528,-1.4519,-1.4519,-1.452,-1.452,-1.4548,-1.4548,0,0,0,0,0,0,-1.4494,-1.4495,-1.4507,-1.4508,-1.4498,-1.4504,-1.4505,-1.4507,-1.4512,-1.4512,-1.4507,-1.4507,-1.4515,-1.4516,-1.4517,-1.4529,-1.452,-1.452,-1.4521,-1.4548,-1.4548,-1.4549,0,0,0,0,0,0,-1.4494,-1.4495,-1.4507,-1.4501,-1.4503,-1.4504,-1.4508,-1.4508,-1.451,-1.4512,-1.4513,-1.4509,-1.4515,-1.4516,-1.4525,-1.453,-1.452,-1.4521,-1.4547,-1.4548,-1.4548,-1.4554,0,0,0,0,0,0,-1.4493,-1.4495,-1.4498,-1.4501,-1.4503,-1.4514,-1.4508,-1.4508,-1.4511,-1.451,-1.4514,-1.4515,-1.4515,-1.4524,-1.4525,-1.453,-1.4521,-1.4547,-1.4547,-1.4548,-1.4553,-1.4554,-1.4555,0,0,0,0,0,-1.4492,-1.4499,-1.4498,-1.45,-1.4507,-1.4514,-1.4515,-1.4515,-1.4511,-1.4515,-1.4517,-1.4515,-1.4529,-1.4525,-1.4526,-1.4532,-1.4546,-1.4547,-1.4548,-1.4552,-1.4554,-1.4555,0,0,0,0,0,0,-1.4496,-1.45,-1.4498,-1.4506,-1.451,-1.4513,-1.4517,-1.4516,-1.4521,-1.452,-1.452,-1.4521,-1.453,-1.4532,-1.4527,-1.4542,-1.4537,-1.4539,-1.454,-1.4542,-1.4543,-1.4542,-1.4522,0,0,0,0,0,-1.4498,-1.4503,-1.4506,-1.4513,-1.4514,-1.4516,-1.4519,-1.4518,-1.4522,-1.4523,-1.4526,-1.453,-1.4535,-1.4539,-1.4544,-1.4554,-1.4555,-1.4558,-1.456,-1.4561,-1.4561,-1.4567,-1.4569,-1.4551,-1.4551,-1.4551,0,0,-1.4502,-1.4504,-1.4507,-1.4513,-1.4516,-1.4521,-1.4517,-1.4522,-1.4527,-1.4524,-1.4532,-1.4534,-1.4539,-1.4548,-1.4552,-1.455,-1.4567,-1.4562,-1.4562,-1.4563,-1.4568,-1.457,-1.4571,-1.4552,-1.4552,-1.4552,0,0,-1.4511,-1.4513,-1.4519,-1.4522,-1.4526,-1.4527,-1.4529,-1.4533,-1.4534,-1.4542,-1.4541,-1.4546,-1.4555,-1.4559,-1.4562,-1.4574,-1.4572,-1.4576,-1.4582,-1.4588,-1.4589,-1.459,-1.4594,-1.4596,-1.4577,-1.4577,-1.4577,0,-1.4515,-1.4522,-1.4523,-1.4528,-1.4532,-1.453,-1.4537,-1.454,-1.4545,-1.4548,-1.4545,-1.4558,-1.4561,-1.4571,-1.4574,-1.4577,-1.4579,-1.4575,-1.4589,-1.459,-1.4591,-1.4595,-1.4597,-1.4577,-1.4577,-1.4577,-1.4577,0,-1.4527,-1.4532,-1.4537,-1.4542,-1.4546,-1.4552,-1.4554,-1.4558,-1.4558,-1.456,-1.4569,-1.4573,-1.4579,-1.4581,-1.4581,-1.4592,-1.4591,-1.4589,-1.4584,-1.4593,-1.4597,-1.4598,-1.4578,-1.4578,-1.4578,-1.4578,0,0,-1.4537,-1.4544,-1.4545,-1.4548,-1.4553,-1.4558,-1.4565,-1.457,-1.4574,-1.4579,-1.4584,-1.4593,-1.4592,-1.4595,-1.4596,-1.4601,-1.4611,-1.4598,-1.4599,-1.46,-1.4623,-1.4624,-1.4625,-1.461,-1.4611,-1.4611,-1.4622,0,-1.4546,-1.4557,-1.4558,-1.4569,-1.4574,-1.4574,-1.458,-1.4584,-1.4586,-1.4591,-1.4594,-1.46,-1.4598,-1.46,-1.4605,-1.4608,-1.4615,-1.4608,-1.4616,-1.4616,-1.4613,-1.4627,-1.4628,-1.4639,-1.4624,-1.4624,-1.4624,0,-1.4558,-1.4563,-1.4573,-1.4578,-1.4581,-1.4586,-1.4592,-1.4597,-1.4602,-1.4604,-1.4608,-1.4609,-1.4617,-1.4613,-1.4624,-1.4619,-1.4622,-1.4625,-1.4625,-1.4625,-1.462,-1.4627,-1.4642,-1.4643,-1.4627,-1.4627,-1.4626,0,-1.4564,-1.4573,-1.4581,-1.4583,-1.459,-1.4593,-1.4596,-1.4601,-1.4605,-1.4611,-1.4614,-1.462,-1.4624,-1.463,-1.4632,-1.4629,-1.4643,-1.4639,-1.4645,-1.4645,-1.4647,-1.4646,-1.4661,-1.4651,-1.4651,-1.465,-1.465,0,-1.4573,-1.458,-1.4583,-1.4588,-1.4595,-1.4598,-1.4605,-1.4608,-1.4613,-1.4619,-1.4619,-1.4625,-1.4628,-1.4635,-1.4637,-1.4646,-1.4648,-1.4649,-1.465,-1.4649,-1.4648,-1.465,-1.4649,-1.4651,-1.4651,-1.4651,-1.4651,0,-1.458,-1.4583,-1.4591,-1.4597,-1.4599,-1.4604,-1.4609,-1.4614,-1.4617,-1.4624,-1.4626,-1.4631,-1.4638,-1.4642,-1.4651,-1.4653,-1.4663,-1.4663,-1.4661,-1.4661,-1.4666,-1.4665,-1.4682,-1.4684,-1.4673,-1.4673,-1.4673,0,-1.4586,-1.4591,-1.4597,-1.4601,-1.4604,-1.461,-1.4614,-1.4617,-1.4621,-1.4628,-1.4632,-1.464,-1.4646,-1.4658,-1.4663,-1.467,-1.467,-1.4676,-1.4671,-1.4671,-1.467,-1.4669,-1.467,-1.4676,-1.4676,-1.4677,-1.4677,0,-1.4595,-1.4596,-1.4602,-1.4608,-1.4613,-1.4618,-1.4623,-1.4627,-1.4631,-1.4636,-1.4643,-1.4648,-1.4658,-1.4665,-1.4673,-1.4677,-1.4678,-1.4678,-1.468,-1.4678,-1.4676,-1.4677,-1.4662,-1.4678,-1.4677,-1.4677,-1.4677,-1.4677,-1.4601,-1.4605,-1.4611,-1.4617,-1.4621,-1.4627,-1.4631,-1.4635,-1.4641,-1.4649,-1.4651,-1.4659,-1.4666,-1.4677,-1.4681,-1.4688,-1.4687,-1.4689,-1.4689,-1.469,-1.469,-1.4676,-1.469,-1.469,-1.469,-1.4689,-1.4689,0,-1.461,-1.4613,-1.4619,-1.4627,-1.4632,-1.4632,-1.4638,-1.4643,-1.465,-1.4656,-1.4662,-1.4671,-1.4679,-1.4685,-1.4693,-1.4697,-1.4698,-1.4699,-1.4698,-1.4699,-1.4691,-1.4688,-1.4699,-1.4699,-1.4699,-1.4699,-1.4699,-1.4699,-1.4615,-1.4622,-1.4625,-1.4635,-1.4639,-1.4646,-1.465,-1.4655,-1.466,-1.467,-1.4676,-1.468,-1.4686,-1.4695,-1.4702,-1.4704,-1.4707,-1.4708,-1.4709,-1.4701,-1.47,-1.4699,-1.4697,-1.4709,-1.4709,-1.4718,-1.4718,-1.4718]},{"header":{"parameterUnit":"m.s-1","parameterCategory":1,"la1":30.2991,"la2":30.254,"lo1":-89.0895,"lo2":-89.0444,"dy":0.0017,"dx":0.0017,"nx":28,"ny":28,"refTime":"2024-03-01T03:00:00:Z","depth":0,"parameterNumber":3,"parameterNumberName":"V-component_of_WINDS"},"data":[0,0,0,0,0,0,0,0,0,0,0,0,0,0,0,0,0,0,0,0,0,0,0,0,0,0,0,0,0,0,0,0,0,0,0,0,0,0,0,0,0,0,0,0,0,0,0,0,0,0,0,0,0,0,0,0,0,0,2.1025,2.1026,0,2.1116,2.1117,2.1118,2.1159,2.1159,2.1158,2.1158,2.1251,2.1254,2.1256,0,0,0,0,0,0,0,0,0,0,0,0,0,2.0884,2.0886,2.1025,2.1026,2.1027,2.1116,2.1117,2.1119,2.1159,2.1159,2.1158,2.1158,2.1251,2.1254,2.1257,0,0,0,0,0,0,0,0,0,0,0,0,0,2.0957,2.0887,2.1025,2.1058,2.1062,2.1116,2.1117,2.1119,2.1159,2.1159,2.1158,2.1158,2.125,2.1253,2.1257,2.1285,0,0,2.1269,2.1271,0,0,0,0,0,0,0,0,2.0953,2.0962,2.1052,2.1056,2.106,2.1126,2.1102,2.1175,2.1159,2.1122,2.1158,2.1158,2.121,2.1217,2.1234,2.1289,2.1293,2.1269,2.1272,2.1273,2.1275,0,0,0,0,0,0,0,2.0948,2.0959,2.1061,2.1053,2.1058,2.1068,2.1078,2.1116,2.1166,2.1125,2.1128,2.1139,2.1212,2.1231,2.1237,2.1295,2.1269,2.1273,2.1275,2.1277,2.1377,2.1378,0,0,0,0,0,0,2.0937,2.0954,2.1058,2.1064,2.1005,2.1071,2.1082,2.1105,2.1165,2.1175,2.1139,2.114,2.1224,2.1232,2.124,2.1277,2.1273,2.1277,2.1279,2.1377,2.1377,2.1378,0,0,0,0,0,0,2.0934,2.0946,2.1054,2.101,2.1024,2.1073,2.1099,2.1107,2.1126,2.1176,2.1185,2.1149,2.1224,2.1235,2.1274,2.1281,2.1279,2.1282,2.1377,2.1377,2.1378,2.1351,0,0,0,0,0,0,2.093,2.0945,2.0956,2.101,2.1027,2.1086,2.1099,2.1109,2.1132,2.1135,2.1187,2.1196,2.1225,2.1268,2.1278,2.1286,2.1285,2.1376,2.1377,2.1377,2.1352,2.1351,2.135,0,0,0,0,0,2.0925,2.0945,2.0957,2.0969,2.1042,2.1087,2.1096,2.1129,2.1133,2.1144,2.1177,2.1194,2.1279,2.1271,2.1283,2.1293,2.1376,2.1377,2.1377,2.1352,2.1351,2.135,0,0,0,0,0,0,2.0891,2.0953,2.0966,2.1004,2.104,2.1093,2.1109,2.1127,2.1162,2.1164,2.1203,2.1214,2.125,2.1275,2.1266,2.1323,2.1329,2.1332,2.1305,2.1305,2.1304,2.1297,2.1289,0,0,0,0,0,2.0887,2.0919,2.0971,2.1,2.1017,2.106,2.1081,2.1103,2.1142,2.1157,2.1192,2.1228,2.1263,2.1285,2.132,2.1355,2.1367,2.1368,2.1367,2.1366,2.1368,2.1389,2.139,2.138,2.138,2.138,0,0,2.0881,2.0919,2.0937,2.0994,2.1024,2.1056,2.1072,2.1105,2.1129,2.1162,2.1201,2.1228,2.1271,2.1308,2.1326,2.133,2.1374,2.1367,2.1366,2.1369,2.139,2.1391,2.1392,2.1381,2.1381,2.1381,0,0,2.0886,2.0918,2.0945,2.0975,2.1021,2.105,2.1056,2.1107,2.1126,2.1166,2.1191,2.122,2.1279,2.1309,2.1332,2.1348,2.1366,2.1359,2.1354,2.1374,2.1375,2.1376,2.1382,2.1384,2.1361,2.1361,2.1361,0,2.0873,2.0922,2.0957,2.0989,2.1013,2.1044,2.1072,2.11,2.1154,2.1171,2.1174,2.1249,2.1281,2.1325,2.1329,2.1347,2.1356,2.1353,2.1372,2.1373,2.1375,2.1381,2.1383,2.1359,2.136,2.136,2.136,0,2.0903,2.0937,2.0953,2.1006,2.1032,2.1062,2.1101,2.1123,2.1143,2.1171,2.1211,2.125,2.1293,2.1305,2.1325,2.1353,2.1354,2.1365,2.1371,2.1374,2.1381,2.1383,2.1358,2.1358,2.1359,2.1359,0,0,2.089,2.0961,2.0967,2.0991,2.1044,2.107,2.1101,2.1144,2.1162,2.1199,2.1226,2.1275,2.1285,2.1311,2.1334,2.1352,2.1363,2.136,2.1362,2.136,2.1396,2.1389,2.1391,2.1374,2.1375,2.1376,2.1393,0,2.0903,2.096,2.0992,2.1036,2.1067,2.1097,2.1124,2.1159,2.1186,2.1217,2.1246,2.1281,2.1291,2.1307,2.1325,2.1357,2.1371,2.1356,2.14,2.1401,2.1389,2.1395,2.1387,2.1401,2.1396,2.1396,2.1397,0,2.0925,2.0962,2.1008,2.1058,2.1072,2.1096,2.1138,2.1166,2.1207,2.1225,2.1254,2.1277,2.1311,2.1314,2.1362,2.1351,2.1371,2.1389,2.1391,2.1397,2.14,2.1401,2.1407,2.1409,2.1401,2.1401,2.14,0,2.0911,2.0972,2.1008,2.1028,2.1086,2.1102,2.1127,2.1167,2.1191,2.1227,2.1243,2.1282,2.1304,2.1334,2.1368,2.1367,2.1412,2.1418,2.1428,2.1427,2.1437,2.1436,2.1446,2.1448,2.1448,2.1448,2.1448,0,2.0923,2.095,2.1002,2.1025,2.1056,2.1093,2.1123,2.1151,2.1186,2.1214,2.1242,2.1268,2.131,2.1341,2.1367,2.1403,2.1412,2.1428,2.1435,2.1426,2.1424,2.144,2.144,2.1449,2.1449,2.1448,2.1448,0,2.0913,2.0949,2.099,2.1042,2.1056,2.1077,2.1121,2.1144,2.1172,2.1207,2.1217,2.1261,2.1299,2.1335,2.1386,2.1404,2.1439,2.1448,2.1426,2.1429,2.1438,2.1437,2.146,2.1465,2.1462,2.1462,2.1462,0,2.0918,2.094,2.0994,2.1015,2.1039,2.1073,2.1097,2.1134,2.1158,2.1206,2.1223,2.1262,2.1296,2.1355,2.1392,2.1431,2.1441,2.1446,2.1447,2.1438,2.1442,2.144,2.1443,2.1445,2.1445,2.1445,2.1445,0,2.0923,2.094,2.0974,2.1014,2.1043,2.1076,2.1111,2.1126,2.1169,2.1195,2.1234,2.126,2.1312,2.1352,2.1395,2.142,2.144,2.1444,2.1449,2.1441,2.1427,2.1435,2.1424,2.1444,2.1444,2.1444,2.1444,2.1444,2.0922,2.0943,2.0984,2.1021,2.1051,2.1083,2.1107,2.1138,2.1171,2.1216,2.1236,2.1275,2.1315,2.1375,2.1401,2.1432,2.1437,2.1443,2.1445,2.1447,2.1445,2.1421,2.144,2.144,2.144,2.1441,2.1441,0,2.0929,2.0957,2.0991,2.1038,2.1067,2.1083,2.1122,2.1146,2.118,2.1216,2.1249,2.1294,2.1332,2.1372,2.1412,2.143,2.144,2.144,2.1439,2.1445,2.1438,2.143,2.1431,2.1431,2.1431,2.1431,2.1431,2.1431,2.0936,2.0973,2.0995,2.1046,2.1075,2.1114,2.1135,2.1164,2.1193,2.1242,2.1274,2.1299,2.1337,2.138,2.1416,2.1427,2.1441,2.1438,2.1451,2.1445,2.1445,2.1446,2.1439,2.1441,2.1441,2.1455,2.1455,2.1456]}]]